"2010-08-20 00:00:00",86701,8.2,49.91,0.391,0.134,18.4,107.5926,18.71,19.42,50.59,0,110.9,13.21,19.53,11.9
"2010-08-20 00:00:30",86702,8.15,49.42,0.333,0.108,18.48,107.6249,18.8,19.49,50.03,0,110.9,13.21,19.62,11.4
"2010-08-20 00:01:00",86703,8.38,49.01,0.732,0.182,18.55,107.6522,18.87,19.58,50.11,0,110.9,13.21,19.69,11.0
"2010-08-20 00:01:30",86704,8.68,47.62,0.649,0.105,18.61,107.6741,18.92,19.65,49.53,0,110.9,13.21,19.74,9.6
"2010-08-20 00:02:00",86705,8.69,46.63,0.508,0.174,18.74,107.7031,19,19.71,48.67,0,110.9,13.21,19.82,8.6
"2010-08-20 00:02:30",86706,9.12,47.89,0.718,0.144,18.72,107.7324,19.07,19.79,49.17,0,110.9,13.22,19.89,9.9
"2010-08-20 00:03:00",86707,9.38,47.93,0.613,0.081,18.68,107.76,19.14,19.85,49.68,0,110.9,13.22,19.96,9.9
"2010-08-20 00:03:30",86708,9.22,48.58,0.941,0.099,18.71,107.7704,19.17,19.91,49.49,0,110.9,13.22,19.99,10.6
"2010-08-20 00:04:00",86709,9.72,50.14,1.827,0.368,18.52,107.7977,19.24,19.96,50.22,0,110.9,13.22,20.06,12.1
"2010-08-20 00:04:30",86710,9.84,52.05,2.504,0.192,18.44,107.7988,19.24,20.02,52.11,0,110.9,13.22,20.06,14.0
"2010-08-20 00:05:00",86711,9.18,58.35,2.005,0.503,18.4,107.7988,19.24,20.04,52.39,0,110.9,13.22,20.06,20.3
"2010-08-20 00:05:30",86712,9.32,60.04,2.361,0.378,18.35,107.7971,19.24,20.04,52.92,0,110.9,13.22,20.06,22.0
"2010-08-20 00:06:00",86713,9.05,60.49,1.193,0.152,18.31,107.7698,19.17,20.04,53.1,0,110.9,13.22,19.99,22.5
"2010-08-20 00:06:30",86714,8.79,58.76,2.412,0.147,18.29,107.765,19.16,20.03,53.45,0,110.9,13.22,19.98,20.8
"2010-08-20 00:07:00",86715,8.78,55.5,1.97,0.15,18.37,107.7422,19.1,20.01,53.64,0,110.9,13.22,19.92,17.5
"2010-08-20 00:07:30",86716,8.61,52.65,1.31,0.241,18.41,107.7313,19.07,19.99,53.96,0,110.9,13.22,19.89,14.7
"2010-08-20 00:08:00",86717,8.47,52.44,1.773,0.166,18.49,107.7313,19.07,19.96,53.79,0,110.9,13.22,19.89,14.4
"2010-08-20 00:08:30",86718,8.51,48.35,1.237,0.117,18.87,107.7313,19.07,19.97,51.45,0,110.9,13.22,19.89,10.3
"2010-08-20 00:09:00",86719,8.31,47.5,0.86,0.15,19.03,107.7521,19.12,19.98,49.01,0,110.9,13.22,19.94,9.5
"2010-08-20 00:09:30",86720,8.27,48.67,0.678,0.08,19.03,107.7766,19.19,20.02,48.25,0,110.9,13.22,20.01,10.7
"2010-08-20 00:10:00",86721,8.29,50.72,1.144,0.284,18.87,107.8061,19.26,20.06,48.2,0,110.9,13.22,20.08,12.7
"2010-08-20 00:10:30",86722,8.89,54.7,1.954,0.209,18.37,107.8323,19.33,20.12,51.95,0,110.9,13.22,20.15,16.7
"2010-08-20 00:11:00",86723,8.83,58.12,1.503,0.174,18.17,107.8283,19.32,20.14,53.58,0,110.9,13.22,20.14,20.1
"2010-08-20 00:11:30",86724,8.56,58.24,1.715,0.234,18.1,107.7993,19.24,20.14,54.22,0,110.9,13.22,20.06,20.2
"2010-08-20 00:12:00",86725,8.35,55.85,2.267,0.312,18.04,107.7878,19.22,20.13,55.63,0,110.9,13.22,20.03,17.8
"2010-08-20 00:12:30",86726,8.19,55.6,2.522,0.258,17.96,107.7622,19.15,20.08,56.63,0,110.9,13.22,19.97,17.6
"2010-08-20 00:13:00",86727,8.22,54.93,3.234,0.195,17.9,107.7259,19.06,20.03,58.19,0,110.9,13.22,19.88,16.9
"2010-08-20 00:13:30",86728,7.824,61.46,2.29,0.386,17.9,107.6844,18.95,19.96,58.24,0,110.9,13.22,19.77,23.5
"2010-08-20 00:14:00",86729,7.396,56.96,7.261,0.576,18.57,107.6556,18.88,19.89,55.63,0,110.9,13.22,19.69,19.0
"2010-08-20 00:14:30",86730,8.11,45.7,1.201,0.105,19.49,107.6661,18.9,19.85,47.87,0,110.9,13.21,19.72,7.7
"2010-08-20 00:15:00",86731,7.811,50.17,6.168,0.322,19.09,107.7156,19.03,19.89,47.55,0,110.9,13.21,19.85,12.2
"2010-08-20 00:15:30",86732,7.592,67.41,1.986,0.169,18.06,107.7421,19.1,19.97,55.06,0,110.9,13.21,19.92,29.4
"2010-08-20 00:16:00",86733,7.405,72.46,2.185,0.135,17.83,107.7249,19.05,19.96,57.42,0,110.9,13.21,19.87,34.5
"2010-08-20 00:16:30",86734,7.475,71.17,2.496,0.3,17.79,107.6769,18.93,19.89,59.03,0,110.9,13.21,19.75,33.2
"2010-08-20 00:17:00",86735,7.43,70.36,1.14,0.267,17.92,107.6297,18.81,19.81,60.29,0,110.9,13.21,19.63,32.4
"2010-08-20 00:17:30",86736,7.248,72.51,0.995,0.118,18.05,107.5734,18.67,19.72,60.82,0,110.9,13.21,19.48,34.5
"2010-08-20 00:18:00",86737,6.982,72.66,1.216,0.082,18.17,107.5313,18.56,19.63,61.22,0,110.9,13.21,19.37,34.7
"2010-08-20 00:18:30",86738,7.561,73.03,0.702,0.288,18.15,107.4812,18.43,19.53,63.03,0,110.9,13.21,19.25,35.0
"2010-08-20 00:19:00",86739,8.32,69.62,4.252,0.168,18.63,107.441,18.33,19.45,62.04,0,110.9,13.21,19.14,31.6
"2010-08-20 00:19:30",86740,8.28,55.6,3.736,0.123,19.62,107.4228,18.28,19.36,56.21,0,110.9,13.21,19.10,17.6
"2010-08-20 00:20:00",86741,7.31,58.71,2.048,0.119,18.73,107.4547,18.36,19.33,59.44,0,110.9,13.22,19.18,20.7
"2010-08-20 00:20:30",86742,7.517,64.56,1.348,0.198,18.22,107.4391,18.32,19.31,62.2,0,110.9,13.22,19.14,26.6
"2010-08-20 00:21:00",86743,7.96,62.16,2.582,0.099,18.54,107.4043,18.23,19.26,62.69,0,110.9,13.22,19.05,24.2
"2010-08-20 00:21:30",86744,8.1,59.35,1.253,0.177,18.99,107.393,18.2,19.19,61.34,0,110.9,13.22,19.02,21.3
"2010-08-20 00:22:00",86745,8.17,60.9,1.422,0.24,19.2,107.3937,18.2,19.16,59.88,0,110.9,13.22,19.02,22.9
"2010-08-20 00:22:30",86746,7.871,61.08,1.441,0.081,19.1,107.3945,18.21,19.16,60,0,110.9,13.22,19.02,23.1
"2010-08-20 00:23:00",86747,7.874,63.41,1.057,0.15,18.96,107.4117,18.25,19.16,60.6,0,110.9,13.22,19.07,25.4
"2010-08-20 00:23:30",86748,7.349,62.18,0.77,0.274,18.72,107.4046,18.23,19.16,61.8,0,110.9,13.22,19.05,24.2
"2010-08-20 00:24:00",86749,6.541,60.38,2.3,0.228,18.57,107.3937,18.2,19.15,62.71,0,110.9,13.22,19.02,22.4
"2010-08-20 00:24:30",86750,7.165,60.81,1.423,0.298,18.88,107.3686,18.14,19.11,62.59,0,110.9,13.22,18.96,22.8
"2010-08-20 00:25:00",86751,7.569,62.27,2.049,0.169,19.04,107.3695,18.14,19.08,61.58,0,110.9,13.22,18.96,24.3
"2010-08-20 00:25:30",86752,7.712,60.58,2.573,0.275,19.15,107.3883,18.19,19.08,60.12,0,110.9,13.23,19.01,22.6
"2010-08-20 00:26:00",86753,7.635,59.83,1,0.217,19.17,107.3984,18.22,19.09,57.51,0,110.9,13.23,19.03,21.8
"2010-08-20 00:26:30",86754,7.488,58.99,1.039,0.085,19.28,107.4254,18.29,19.13,55.25,0,110.9,13.23,19.10,21.0
"2010-08-20 00:27:00",86755,7.988,56.47,0.89,0.249,19.29,107.4547,18.36,19.16,54.12,0,110.9,13.23,19.18,18.5
"2010-08-20 00:27:30",86756,7.785,55.37,1.944,0.245,19.23,107.4775,18.42,19.21,54.24,0,110.9,13.23,19.24,17.4
"2010-08-20 00:28:00",86757,7.701,54.97,2.964,0.281,19.05,107.4949,18.46,19.25,54.75,0,110.9,13.23,19.28,17.0
"2010-08-20 00:28:30",86758,8.2,51.31,1.295,0.207,18.98,107.5,18.48,19.31,54.47,0,110.9,13.23,19.29,13.3
"2010-08-20 00:29:00",86759,7.938,58.02,1.683,0.275,18.79,107.502,18.48,19.33,55.72,0,110.9,13.23,19.30,20.0
"2010-08-20 00:29:30",86760,7.744,59.07,2.096,0.205,19.01,107.4955,18.47,19.34,55.1,0,110.9,13.23,19.28,21.1
"2010-08-20 00:30:00",86761,7.801,57.78,2.472,0.337,18.74,107.4949,18.46,19.34,56.17,0,110.8,13.23,19.28,19.8
"2010-08-20 00:30:30",86762,7.808,60.39,3.437,0.249,18.89,107.4949,18.46,19.33,56.16,0,110.8,13.23,19.28,22.4
"2010-08-20 00:31:00",86763,7.826,62.86,3.21,0.197,18.99,107.4913,18.45,19.33,55.44,0,110.8,13.23,19.27,24.9
"2010-08-20 00:31:30",86764,7.753,58.94,2.815,0.276,18.87,107.4831,18.43,19.31,56.24,0,110.8,13.23,19.25,20.9
"2010-08-20 00:32:00",86765,7.762,54.39,3.426,0.273,18.82,107.4612,18.38,19.31,56.46,0,110.8,13.23,19.19,16.4
"2010-08-20 00:32:30",86766,7.973,53.54,2.091,0.355,19.31,107.4612,18.38,19.29,54.69,0,110.8,13.22,19.19,15.5
"2010-08-20 00:33:00",86767,8.39,50.85,0.472,0.104,19.65,107.4789,18.42,19.29,51.81,0,110.8,13.22,19.24,12.8
"2010-08-20 00:33:30",86768,8.16,49.63,1.541,0.177,19.16,107.4949,18.46,19.33,53.39,0,110.8,13.23,19.28,11.6
"2010-08-20 00:34:00",86769,8.33,48.19,0.597,0.095,19.61,107.5191,18.53,19.37,51.35,0,110.8,13.23,19.34,10.2
"2010-08-20 00:34:30",86770,8.72,47.44,1.021,0.132,19.04,107.5436,18.59,19.43,51.55,0,110.8,13.22,19.41,9.4
"2010-08-20 00:35:00",86771,8.67,49.58,2.227,0.113,18.83,107.5622,18.64,19.46,52,0,110.8,13.23,19.45,11.6
"2010-08-20 00:35:30",86772,8.43,53.77,2.14,0.223,18.6,107.5507,18.61,19.47,54.73,0,110.8,13.23,19.42,15.8
"2010-08-20 00:36:00",86773,8.78,49.82,2.475,0.455,18.98,107.5308,18.56,19.48,53.21,0,110.8,13.23,19.37,11.8
"2010-08-20 00:36:30",86774,8.99,48.75,0.777,0.101,19.48,107.5314,18.56,19.45,49.51,0,110.8,13.23,19.37,10.8
"2010-08-20 00:37:00",86775,8.97,49.26,1.098,0.188,19.23,107.5551,18.62,19.48,50.18,0,110.8,13.23,19.44,11.3
"2010-08-20 00:37:30",86776,8.95,48.49,2.369,0.369,19.12,107.5682,18.65,19.5,51.38,0,110.8,13.23,19.47,10.5
"2010-08-20 00:38:00",86777,9.15,47.37,0.582,0.046,19.53,107.5703,18.66,19.54,49.25,0,110.8,13.24,19.47,9.4
"2010-08-20 00:38:30",86778,9.16,48.08,0.848,0.096,19.28,107.594,18.72,19.55,48.52,0,110.8,13.24,19.54,10.1
"2010-08-20 00:39:00",86779,8.97,45.85,0.673,0.06,19.42,107.6073,18.75,19.59,48.7,0,110.8,13.24,19.57,7.8
"2010-08-20 00:39:30",86780,9.08,45.71,1.723,0.141,19.3,107.6361,18.83,19.65,48.98,0,110.8,13.24,19.64,7.7
"2010-08-20 00:40:00",86781,8.9,46.96,1.32,0.1,19.32,107.6423,18.84,19.68,49.53,0,110.8,13.24,19.66,9.0
"2010-08-20 00:40:30",86782,8.99,47.12,0.364,0.062,19.55,107.6715,18.92,19.73,48.71,0,110.8,13.24,19.74,9.1
"2010-08-20 00:41:00",86783,9,47.08,1.016,0.1,19.4,107.6844,18.95,19.78,48.57,0,110.8,13.24,19.77,9.1
"2010-08-20 00:41:30",86784,9.09,46.76,0.425,0.094,19.44,107.7047,19,19.81,48.09,0,110.8,13.24,19.82,8.8
"2010-08-20 00:42:00",86785,9.29,47.84,1.126,0.069,19.25,107.7184,19.04,19.85,47.58,0,110.8,13.24,19.86,9.8
"2010-08-20 00:42:30",86786,9.13,48.28,0.951,0.067,19.24,107.7184,19.04,19.87,47.15,0,110.8,13.24,19.86,10.3
"2010-08-20 00:43:00",86787,8.91,48.62,0.966,0.079,19.37,107.7245,19.05,19.89,46.98,0,110.8,13.24,19.87,10.6
"2010-08-20 00:43:30",86788,8.69,46.68,0.9,0.12,19.49,107.7462,19.11,19.91,47.1,0,110.8,13.24,19.93,8.7
"2010-08-20 00:44:00",86789,8.48,46.9,1.011,0.085,19.59,107.757,19.14,19.95,47.31,0,110.8,13.24,19.96,8.9
"2010-08-20 00:44:30",86790,8.33,47.75,0.451,0.061,19.54,107.7825,19.2,19.97,47.19,0,110.8,13.24,20.02,9.8
"2010-08-20 00:45:00",86791,8.4,47.79,0.428,0.033,19.41,107.7938,19.23,20.02,46.72,0,110.8,13.24,20.05,9.8
"2010-08-20 00:45:30",86792,8.33,48.07,0.612,0.065,19.55,107.8143,19.28,20.07,46.71,0,110.8,13.24,20.10,10.1
"2010-08-20 00:46:00",86793,8.29,48.21,0.426,0.064,19.61,107.8322,19.33,20.11,46.67,0,110.8,13.25,20.15,10.2
"2010-08-20 00:46:30",86794,8.08,47.89,0.32,0.057,19.59,107.837,19.34,20.14,46.54,0,110.8,13.25,20.16,9.9
"2010-08-20 00:47:00",86795,8,47.15,0.578,0.034,19.55,107.8622,19.41,20.17,46.44,0,110.8,13.25,20.23,9.2
"2010-08-20 00:47:30",86796,8.02,47.75,0.451,0.065,19.55,107.8668,19.42,20.2,46.37,0,110.8,13.25,20.24,9.8
"2010-08-20 00:48:00",86797,7.825,48.37,0.891,0.053,19.39,107.8684,19.42,20.23,46.16,0,110.8,13.24,20.24,10.4
"2010-08-20 00:48:30",86798,7.871,47.84,0.927,0.101,19.47,107.8684,19.42,20.26,46.17,0,110.8,13.24,20.24,9.8
"2010-08-20 00:49:00",86799,8.13,49.1,0.605,0.053,19.4,107.8687,19.42,20.26,46.16,0,110.8,13.24,20.24,11.1
"2010-08-20 00:49:30",86800,8.14,47.65,0.509,0.038,19.55,107.869,19.42,20.28,46.23,0,110.8,13.23,20.24,9.7
"2010-08-20 00:50:00",86801,8.18,48.05,0,0.039,19.6,107.8763,19.44,20.29,46.17,0,110.8,13.23,20.26,10.0
"2010-08-20 00:50:30",86802,8.27,48.05,0,0.036,19.54,107.8918,19.48,20.3,46.41,0,110.8,13.23,20.30,10.0
"2010-08-20 00:51:00",86803,8.33,47.86,0.404,0.033,19.41,107.8985,19.5,20.32,46.56,0,110.8,13.23,20.32,9.9
"2010-08-20 00:51:30",86804,8.35,48.05,0.02,0.037,19.48,107.9022,19.51,20.34,46.49,0,110.8,13.23,20.33,10.0
"2010-08-20 00:52:00",86805,8.29,48,0.191,0.035,19.48,107.9027,19.51,20.35,46.62,0,110.8,13.23,20.33,10.0
"2010-08-20 00:52:30",86806,8.18,47.8,0.451,0.025,19.52,107.9027,19.51,20.35,46.57,0,110.8,13.23,20.33,9.8
"2010-08-20 00:53:00",86807,8.27,48.04,0.024,0.037,19.5,107.9027,19.51,20.37,46.64,0,110.8,13.24,20.33,10.0
"2010-08-20 00:53:30",86808,8.22,48,0.028,0.055,19.55,107.9027,19.51,20.37,46.6,0,110.8,13.24,20.33,10.0
"2010-08-20 00:54:00",86809,8.06,48.54,0.527,0.074,19.58,107.9036,19.51,20.38,46.33,0,110.8,13.25,20.33,10.5
"2010-08-20 00:54:30",86810,7.93,48.68,0.525,0.051,19.63,107.9188,19.55,20.39,46.24,0,110.8,13.24,20.37,10.7
"2010-08-20 00:55:00",86811,7.751,49.08,0.19,0.087,19.63,107.9281,19.58,20.4,46.22,0,110.8,13.25,20.40,11.1
"2010-08-20 00:55:30",86812,7.589,49.17,0.175,0.063,19.62,107.9362,19.6,20.42,46.29,0,110.8,13.25,20.42,11.2
"2010-08-20 00:56:00",86813,7.36,49.23,0.253,0.085,19.57,107.9365,19.6,20.45,46.21,0,110.8,13.25,20.42,11.2
"2010-08-20 00:56:30",86814,7.212,49.4,0.336,0.06,19.63,107.9365,19.6,20.45,45.98,0,110.8,13.25,20.42,11.4
"2010-08-20 00:57:00",86815,6.975,49.56,0.321,0.078,19.72,107.9365,19.6,20.47,45.65,0,110.8,13.25,20.42,11.6
"2010-08-20 00:57:30",86816,6.912,49.2,0.232,0.114,19.7,107.9466,19.62,20.48,45.75,0,110.8,13.25,20.44,11.2
"2010-08-20 00:58:00",86817,6.626,47.94,0.571,0.052,19.78,107.9652,19.67,20.5,45.38,0,110.8,13.25,20.49,9.9
"2010-08-20 00:58:30",86818,6.448,47.51,0.598,0.094,19.7,107.9703,19.68,20.53,45.19,0,110.8,13.25,20.50,9.5
"2010-08-20 00:59:00",86819,6.32,48.33,0.485,0.061,19.51,107.9768,19.7,20.54,45.12,0,110.8,13.25,20.52,10.3
"2010-08-20 00:59:30",86820,6.169,48.6,0.525,0.044,19.6,107.9967,19.75,20.58,45.09,0,110.8,13.25,20.57,10.6
"2010-08-20 01:00:00",86821,6.019,46.83,0.693,0.081,19.62,108.004,19.77,20.61,44.69,0,110.8,13.25,20.59,8.8
"2010-08-20 01:00:30",86822,5.834,45.23,0.808,0.112,19.64,108.0133,19.79,20.61,44.36,0,110.8,13.25,20.61,7.2
"2010-08-20 01:01:00",86823,5.732,44.65,0.96,0.087,19.73,108.0373,19.86,20.66,44.28,0,110.8,13.25,20.68,6.7
"2010-08-20 01:01:30",86824,5.711,45.69,0.783,0.087,19.66,108.0381,19.86,20.68,44.36,0,110.8,13.25,20.68,7.7
"2010-08-20 01:02:00",86825,5.839,47.61,0.848,0.078,19.74,108.0522,19.89,20.72,44.44,0,110.8,13.25,20.72,9.6
"2010-08-20 01:02:30",86826,5.912,49.3,0.783,0.066,19.67,108.0629,19.92,20.73,44.49,0,110.8,13.25,20.74,11.3
"2010-08-20 01:03:00",86827,6.061,49.27,0.468,0.058,19.67,108.0609,19.92,20.75,44.71,0,110.8,13.25,20.74,11.3
"2010-08-20 01:03:30",86828,6.05,49.36,0.486,0.067,19.68,108.0474,19.88,20.75,44.82,0,110.8,13.25,20.70,11.4
"2010-08-20 01:04:00",86829,6.062,47.61,0.801,0.052,19.57,108.0378,19.86,20.75,44.85,0,110.8,13.25,20.68,9.6
"2010-08-20 01:04:30",86830,6.097,46.54,0.794,0.11,19.56,108.0378,19.86,20.75,44.87,0,110.8,13.25,20.68,8.5
"2010-08-20 01:05:00",86831,6.181,44.62,0.834,0.046,19.72,108.0378,19.86,20.74,44.81,0,110.8,13.25,20.68,6.6
"2010-08-20 01:05:30",86832,6.198,44.69,1.239,0.115,19.65,108.0378,19.86,20.74,44.79,0,110.8,13.24,20.68,6.7
"2010-08-20 01:06:00",86833,6.294,44.36,1.026,0.123,19.6,108.0378,19.86,20.74,44.69,0,110.8,13.24,20.68,6.4
"2010-08-20 01:06:30",86834,6.377,44.24,0.654,0.056,19.63,108.0378,19.86,20.74,44.76,0,110.8,13.24,20.68,6.2
"2010-08-20 01:07:00",86835,6.472,43.32,0.6,0.063,19.47,108.0378,19.86,20.74,44.96,0,110.8,13.24,20.68,5.3
"2010-08-20 01:07:30",86836,6.749,42.1,0.619,0.146,19.57,108.0378,19.86,20.73,45.14,0,110.8,13.24,20.68,4.1
"2010-08-20 01:08:00",86837,6.966,40.57,0.887,0.074,19.43,108.0325,19.84,20.72,45.37,0,110.8,13.24,20.66,2.6
"2010-08-20 01:08:30",86838,7.129,40.11,0.691,0.057,19.57,108.0139,19.8,20.7,45.41,0,110.8,13.24,20.62,2.1
"2010-08-20 01:09:00",86839,7.154,40.21,0.619,0.086,19.57,108.004,19.77,20.68,45.53,0,110.8,13.24,20.59,2.2
"2010-08-20 01:09:30",86840,7.102,37.15,0.739,0.068,19.62,108.004,19.77,20.68,45.45,0,110.8,13.24,20.59,359.1
"2010-08-20 01:10:00",86841,6.853,36.57,0.509,0.101,19.78,108.004,19.77,20.68,45.18,0,110.8,13.25,20.59,358.6
"2010-08-20 01:10:30",86842,6.501,37.75,0.727,0.137,19.6,108.004,19.77,20.69,44.63,0,110.8,13.25,20.59,359.8
"2010-08-20 01:11:00",86843,6.319,36.48,0.393,0.084,19.62,108.0195,19.81,20.7,44.82,0,110.8,13.25,20.63,358.5
"2010-08-20 01:11:30",86844,6.587,36.91,0.503,0.217,19.66,108.0313,19.84,20.71,45.05,0,110.8,13.25,20.66,358.9
"2010-08-20 01:12:00",86845,7.041,37.11,0.67,0.083,19.67,108.0353,19.85,20.72,45.38,0,110.8,13.25,20.67,359.1
"2010-08-20 01:12:30",86846,7.134,41.32,1.042,0.066,19.49,108.0336,19.85,20.72,45.4,0,110.8,13.25,20.67,3.3
"2010-08-20 01:13:00",86847,7.102,42.66,0.66,0.072,19.47,108.0116,19.79,20.71,45.29,0,110.8,13.25,20.61,4.7
"2010-08-20 01:13:30",86848,6.955,43.79,0.557,0.085,19.44,108.004,19.77,20.69,45.3,0,110.8,13.25,20.59,5.8
"2010-08-20 01:14:00",86849,6.84,43.02,1.094,0.054,19.47,107.9993,19.76,20.65,45.3,0,110.8,13.25,20.58,5.0
"2010-08-20 01:14:30",86850,6.863,41.53,0.663,0.062,19.51,107.981,19.71,20.63,45.25,0,110.8,13.25,20.53,3.5
"2010-08-20 01:15:00",86851,6.847,41.68,0.694,0.07,19.53,107.9768,19.7,20.63,45.21,0,110.8,13.25,20.52,3.7
"2010-08-20 01:15:30",86852,6.933,40.78,0.559,0.045,19.4,107.9731,19.69,20.61,45.13,0,110.8,13.25,20.51,2.8
"2010-08-20 01:16:00",86853,6.914,39.26,0.8,0.05,19.45,107.9711,19.69,20.61,45.26,0,110.8,13.25,20.51,1.3
"2010-08-20 01:16:30",86854,6.776,38.26,0.53,0.057,19.47,107.9703,19.68,20.59,45.38,0,110.8,13.25,20.50,0.3
"2010-08-20 01:17:00",86855,6.755,37.61,0.422,0.052,19.45,107.9703,19.68,20.61,45.36,0,110.8,13.25,20.50,359.6
"2010-08-20 01:17:30",86856,6.776,36.69,0.773,0.091,19.52,107.9703,19.68,20.59,45.47,0,110.8,13.25,20.50,358.7
"2010-08-20 01:18:00",86857,6.675,36.27,0.487,0.09,19.49,107.9703,19.68,20.59,45.4,0,110.8,13.25,20.50,358.3
"2010-08-20 01:18:30",86858,6.771,37.29,0.59,0.054,19.5,107.9703,19.68,20.6,45.35,0,110.8,13.25,20.50,359.3
"2010-08-20 01:19:00",86859,6.797,37.34,0.869,0.046,19.52,107.9703,19.68,20.59,45.39,0,110.8,13.25,20.50,359.3
"2010-08-20 01:19:30",86860,6.731,38.14,0.584,0.044,19.42,107.9703,19.68,20.59,45.24,0,110.8,13.25,20.50,0.1
"2010-08-20 01:20:00",86861,6.632,36.44,0.403,0.063,19.45,107.9703,19.68,20.6,45.37,0,110.8,13.25,20.50,358.4
"2010-08-20 01:20:30",86862,6.653,36.64,0.461,0.066,19.45,107.9703,19.68,20.58,45.42,0,110.8,13.25,20.50,358.6
"2010-08-20 01:21:00",86863,6.574,37.19,0.66,0.06,19.43,107.9703,19.68,20.56,45.39,0,110.8,13.25,20.50,359.2
"2010-08-20 01:21:30",86864,6.475,36.93,0.546,0.059,19.47,107.9686,19.68,20.56,45.4,0,110.8,13.25,20.50,358.9
"2010-08-20 01:22:00",86865,6.5,37.51,0.931,0.123,19.48,107.9607,19.66,20.55,45.46,0,110.8,13.25,20.48,359.5
"2010-08-20 01:22:30",86866,6.394,37.06,1.223,0.116,19.52,107.9466,19.62,20.56,45.59,0,110.8,13.25,20.44,359.1
"2010-08-20 01:23:00",86867,6.651,38.48,0.791,0.107,19.47,107.939,19.6,20.55,45.64,0,110.8,13.25,20.42,0.5
"2010-08-20 01:23:30",86868,6.705,38.8,0.735,0.114,19.47,107.9365,19.6,20.52,45.36,0,110.8,13.25,20.42,0.8
"2010-08-20 01:24:00",86869,6.567,36.51,0.55,0.141,19.51,107.9365,19.6,20.52,45.1,0,110.8,13.25,20.42,358.5
"2010-08-20 01:24:30",86870,6.485,35.68,0.846,0.144,19.53,107.9365,19.6,20.53,44.92,0,110.8,13.24,20.42,357.7
"2010-08-20 01:25:00",86871,6.586,35.96,0.72,0.122,19.49,107.9365,19.6,20.53,45.03,0,110.8,13.25,20.42,358.0
"2010-08-20 01:25:30",86872,6.361,34.87,1.147,0.402,19.55,107.9365,19.6,20.54,45.04,0,110.8,13.25,20.42,356.9
"2010-08-20 01:26:00",86873,5.78,32.57,1.434,0.336,19.62,107.9379,19.6,20.52,44.93,0,110.8,13.24,20.42,354.6
"2010-08-20 01:26:30",86874,5.982,33.03,1.562,0.484,19.56,107.9435,19.61,20.54,45.06,0,110.8,13.25,20.44,355.0
"2010-08-20 01:27:00",86875,6.275,34.15,0.868,0.266,19.49,107.9424,19.61,20.53,45.19,0,110.8,13.25,20.43,356.1
"2010-08-20 01:27:30",86876,5.777,32.8,1.924,0.538,19.51,107.9368,19.6,20.53,45.14,0,110.8,13.25,20.42,354.8
"2010-08-20 01:28:00",86877,5.273,31.32,0.882,0.23,19.54,107.9371,19.6,20.52,44.85,0,110.8,13.25,20.42,353.3
"2010-08-20 01:28:30",86878,5.725,32.32,1.379,0.445,19.51,107.9368,19.6,20.53,45,0,110.8,13.25,20.42,354.3
"2010-08-20 01:29:00",86879,5.302,31.36,3.224,0.781,19.59,107.9365,19.6,20.53,45.01,0,110.8,13.25,20.42,353.4
"2010-08-20 01:29:30",86880,4.96,28.19,1.672,0.324,19.78,107.9483,19.63,20.54,44.91,0,110.8,13.25,20.45,350.2
"2010-08-20 01:30:00",86881,5.303,29.46,2.211,0.388,19.68,107.9703,19.68,20.55,44.79,0,110.8,13.25,20.50,351.5
"2010-08-20 01:30:30",86882,5.266,32.02,2.248,0.528,19.5,107.9703,19.68,20.58,45.05,0,110.8,13.25,20.50,354.0
"2010-08-20 01:31:00",86883,5.03,30.67,1.446,0.341,19.55,107.9703,19.68,20.57,45.1,0,110.8,13.25,20.50,352.7
"2010-08-20 01:31:30",86884,4.785,29.16,1.329,0.216,19.57,107.9703,19.68,20.56,45.2,0,110.8,13.25,20.50,351.2
"2010-08-20 01:32:00",86885,4.963,27.7,1.063,0.122,19.71,107.9703,19.68,20.56,45.04,0,110.8,13.25,20.50,349.7
"2010-08-20 01:32:30",86886,5.058,24.67,0.864,0.14,19.8,107.9714,19.69,20.58,44.95,0,110.7,13.25,20.51,346.7
"2010-08-20 01:33:00",86887,5.052,26.18,1.208,0.158,19.65,107.99,19.73,20.61,44.83,0,110.8,13.25,20.55,348.2
"2010-08-20 01:33:30",86888,5.172,23.64,2.614,0.24,19.71,107.9928,19.74,20.62,44.87,0,110.7,13.25,20.56,345.6
"2010-08-20 01:34:00",86889,5.311,18.83,1.006,0.238,19.79,108.0041,19.77,20.63,44.98,0,110.8,13.25,20.59,340.8
"2010-08-20 01:34:30",86890,4.756,18.07,1.023,0.217,19.82,108.0044,19.77,20.65,45.25,0,110.7,13.25,20.59,340.1
"2010-08-20 01:35:00",86891,5.046,19.06,1.245,0.312,19.77,108.0229,19.82,20.67,45.06,0,110.7,13.26,20.64,341.1
"2010-08-20 01:35:30",86892,5.212,19.42,1.018,0.152,19.7,108.0297,19.84,20.69,44.73,0,110.7,13.26,20.66,341.4
"2010-08-20 01:36:00",86893,5.199,19.77,0.842,0.172,19.72,108.026,19.83,20.68,44.5,0,110.7,13.26,20.65,341.8
"2010-08-20 01:36:30",86894,5.153,19.36,1.229,0.186,19.69,108.0266,19.83,20.68,44.53,0,110.8,13.26,20.65,341.4
"2010-08-20 01:37:00",86895,4.933,19.17,1.043,0.169,19.61,108.014,19.8,20.69,44.77,0,110.7,13.26,20.62,341.2
"2010-08-20 01:37:30",86896,4.707,18.73,1.22,0.283,19.6,108.0056,19.77,20.69,44.82,0,110.7,13.26,20.60,340.7
"2010-08-20 01:38:00",86897,4.217,17.96,1.149,0.148,19.44,108.001,19.76,20.68,45.13,0,110.7,13.26,20.58,340.0
"2010-08-20 01:38:30",86898,4.001,17.76,1.378,0.21,19.33,107.9723,19.69,20.65,45.53,0,110.7,13.25,20.51,339.8
"2010-08-20 01:39:00",86899,3.864,18.03,1.333,0.225,19.35,107.9464,19.62,20.61,45.79,0,110.7,13.25,20.44,340.0
"2010-08-20 01:39:30",86900,3.303,15.91,1.86,0.312,19.36,107.9314,19.58,20.58,45.97,0,110.7,13.25,20.40,337.9
"2010-08-20 01:40:00",86901,2.813,14.35,2.794,0.41,19.28,107.9033,19.51,20.53,46.31,0,110.7,13.25,20.33,336.4
"2010-08-20 01:40:30",86902,2.342,13.56,2.955,0.297,19.25,107.8794,19.45,20.47,46.54,0,110.7,13.25,20.27,335.6
"2010-08-20 01:41:00",86903,2.413,13.55,3.462,0.294,19.19,107.8623,19.41,20.43,46.86,0,110.7,13.25,20.23,335.5
"2010-08-20 01:41:30",86904,2.266,13.27,4.134,0.353,19.17,107.8355,19.34,20.38,47.06,0,110.7,13.25,20.16,335.3
"2010-08-20 01:42:00",86905,2.952,17.79,1.406,0.25,19.15,107.8093,19.27,20.32,47.25,0,110.7,13.25,20.09,339.8
"2010-08-20 01:42:30",86906,3.308,18.47,1.464,0.211,19.16,107.8001,19.25,20.28,47.42,0,110.7,13.25,20.07,340.5
"2010-08-20 01:43:00",86907,3.214,17.76,1.156,0.153,19.15,107.7702,19.17,20.24,47.63,0,110.7,13.25,19.99,339.8
"2010-08-20 01:43:30",86908,3.321,16.98,1.582,0.187,19.14,107.7663,19.16,20.18,47.86,0,110.7,13.25,19.98,339.0
"2010-08-20 01:44:00",86909,3.278,17.46,1.94,0.19,19.14,107.7382,19.09,20.15,48.04,0,110.7,13.25,19.91,339.5
"2010-08-20 01:44:30",86910,3.181,17.39,2.359,0.399,19.13,107.7348,19.08,20.11,48.28,0,110.7,13.25,19.90,339.4
"2010-08-20 01:45:00",86911,2.955,17.35,1.878,0.186,19.14,107.7247,19.05,20.08,48.47,0,110.7,13.26,19.87,339.4
"2010-08-20 01:45:30",86912,3.236,18.3,1.689,0.287,19.12,107.7044,19,20.04,48.62,0,110.7,13.26,19.82,340.3
"2010-08-20 01:46:00",86913,3.554,18.93,0.991,0.157,19.1,107.7007,18.99,20,48.74,0,110.7,13.26,19.81,340.9
"2010-08-20 01:46:30",86914,3.565,18.63,0.953,0.159,19.08,107.6921,18.97,19.97,48.96,0,110.7,13.26,19.79,340.6
"2010-08-20 01:47:00",86915,3.681,18.91,1.163,0.173,19.07,107.669,18.91,19.93,49.12,0,110.7,13.26,19.73,340.9
"2010-08-20 01:47:30",86916,3.654,19.64,1.424,0.132,19.08,107.6691,18.91,19.92,49.28,0,110.7,13.26,19.73,341.6
"2010-08-20 01:48:00",86917,3.553,21.48,1.488,0.179,19.04,107.6654,18.9,19.88,49.38,0,110.7,13.26,19.72,343.5
"2010-08-20 01:48:30",86918,3.434,20.08,1.538,0.174,19.01,107.6446,18.85,19.85,49.47,0,110.7,13.26,19.67,342.1
"2010-08-20 01:49:00",86919,3.374,19.46,1.31,0.149,19.01,107.6377,18.83,19.82,49.59,0,110.7,13.26,19.65,341.5
"2010-08-20 01:49:30",86920,3.157,18.82,1.24,0.165,19.02,107.639,18.83,19.78,49.73,0,110.7,13.26,19.65,340.8
"2010-08-20 01:50:00",86921,3.077,18.83,1.38,0.16,18.99,107.6212,18.79,19.77,49.79,0,110.7,13.26,19.61,340.8